Year,Month,Day,Hour,Minute,Value (Times are PST for temperature in C)
2018,05,23,00,00,14.20
2018,05,23,00,01,14.20
2018,05,23,00,02,14.20
2018,05,23,00,03,14.10
2018,05,23,00,04,14.10
2018,05,23,00,05,14.10
2018,05,23,00,06,14.10
2018,05,23,00,07,14.10
2018,05,23,00,08,14.10
2018,05,23,00,09,14.00
2018,05,23,00,10,14.00
2018,05,23,00,11,14.00
2018,05,23,00,12,13.90
2018,05,23,00,13,13.90
2018,05,23,00,14,13.90
2018,05,23,00,15,13.90
2018,05,23,00,16,13.80
2018,05,23,00,17,13.80
2018,05,23,00,18,13.80
2018,05,23,00,19,13.80
2018,05,23,00,20,13.70
2018,05,23,00,21,13.70
2018,05,23,00,22,13.70
2018,05,23,00,23,13.70
2018,05,23,00,24,13.70
2018,05,23,00,25,13.60
2018,05,23,00,26,13.60
2018,05,23,00,27,13.60
2018,05,23,00,28,13.60
2018,05,23,00,29,13.50
2018,05,23,00,30,13.50
2018,05,23,00,31,13.50
2018,05,23,00,32,13.40
2018,05,23,00,33,13.40
2018,05,23,00,34,13.40
2018,05,23,00,35,13.40
2018,05,23,00,36,13.30
2018,05,23,00,37,13.30
2018,05,23,00,38,13.30
2018,05,23,00,39,13.30
2018,05,23,00,40,13.30
2018,05,23,00,41,13.30
2018,05,23,00,42,13.30
2018,05,23,00,43,13.30
2018,05,23,00,44,13.20
2018,05,23,00,45,13.20
2018,05,23,00,46,13.20
2018,05,23,00,47,13.20
2018,05,23,00,48,13.20
2018,05,23,00,49,13.20
2018,05,23,00,50,13.20
2018,05,23,00,51,13.20
2018,05,23,00,52,13.20
2018,05,23,00,53,13.20
2018,05,23,00,54,13.10
2018,05,23,00,55,13.10
2018,05,23,00,56,13.10
2018,05,23,00,57,13.10
2018,05,23,00,58,13.10
2018,05,23,00,59,13.10
2018,05,23,01,00,13.10
2018,05,23,01,01,13.00
2018,05,23,01,02,13.00
2018,05,23,01,03,13.00
2018,05,23,01,04,13.00
2018,05,23,01,05,12.90
2018,05,23,01,06,12.90
2018,05,23,01,07,12.90
2018,05,23,01,08,12.90
2018,05,23,01,09,12.90
2018,05,23,01,10,12.80
2018,05,23,01,11,12.80
2018,05,23,01,12,12.80
2018,05,23,01,13,12.80
2018,05,23,01,14,12.80
2018,05,23,01,15,12.80
2018,05,23,01,16,12.80
2018,05,23,01,17,12.70
2018,05,23,01,18,12.70
2018,05,23,01,19,12.70
2018,05,23,01,20,12.70
2018,05,23,01,21,12.70
2018,05,23,01,22,12.60
2018,05,23,01,23,12.60
2018,05,23,01,24,12.60
2018,05,23,01,25,12.60
2018,05,23,01,26,12.60
2018,05,23,01,27,12.50
2018,05,23,01,28,12.50
2018,05,23,01,29,12.50
2018,05,23,01,30,12.50
2018,05,23,01,31,12.50
2018,05,23,01,32,12.50
2018,05,23,01,33,12.50
2018,05,23,01,34,12.40
2018,05,23,01,35,12.40
2018,05,23,01,36,12.40
2018,05,23,01,37,12.40
2018,05,23,01,38,12.40
2018,05,23,01,39,12.40
2018,05,23,01,40,12.40
2018,05,23,01,41,12.40
2018,05,23,01,42,12.30
2018,05,23,01,43,12.30
2018,05,23,01,44,12.30
2018,05,23,01,45,12.30
2018,05,23,01,46,12.30
2018,05,23,01,47,12.30
2018,05,23,01,48,12.30
2018,05,23,01,49,12.30
2018,05,23,01,50,12.20
2018,05,23,01,51,12.20
2018,05,23,01,52,12.20
2018,05,23,01,53,12.20
2018,05,23,01,54,12.20
2018,05,23,01,55,12.10
2018,05,23,01,56,12.10
2018,05,23,01,57,12.10
2018,05,23,01,58,12.10
2018,05,23,01,59,12.10
2018,05,23,02,00,12.10
2018,05,23,02,01,12.10
2018,05,23,02,02,12.10
2018,05,23,02,03,12.10
2018,05,23,02,04,12.00
2018,05,23,02,05,12.00
2018,05,23,02,06,12.00
2018,05,23,02,07,12.00
2018,05,23,02,08,12.00
2018,05,23,02,09,11.90
2018,05,23,02,10,11.90
2018,05,23,02,11,11.90
2018,05,23,02,12,11.90
2018,05,23,02,13,11.90
2018,05,23,02,14,11.90
2018,05,23,02,15,11.90
2018,05,23,02,16,11.80
2018,05,23,02,17,11.80
2018,05,23,02,18,11.80
2018,05,23,02,19,11.80
2018,05,23,02,20,11.80
2018,05,23,02,21,11.80
2018,05,23,02,22,11.80
2018,05,23,02,23,11.70
2018,05,23,02,24,11.70
2018,05,23,02,25,11.70
2018,05,23,02,26,11.70
2018,05,23,02,27,11.70
2018,05,23,02,28,11.70
2018,05,23,02,29,11.70
2018,05,23,02,30,11.70
2018,05,23,02,31,11.60
2018,05,23,02,32,11.60
2018,05,23,02,33,11.60
2018,05,23,02,34,11.60
2018,05,23,02,35,11.60
2018,05,23,02,36,11.60
2018,05,23,02,37,11.60
2018,05,23,02,38,11.60
2018,05,23,02,39,11.60
2018,05,23,02,40,11.60
2018,05,23,02,41,11.50
2018,05,23,02,42,11.50
2018,05,23,02,43,11.50
2018,05,23,02,44,11.50
2018,05,23,02,45,11.50
2018,05,23,02,46,11.40
2018,05,23,02,47,11.40
2018,05,23,02,48,11.40
2018,05,23,02,49,11.40
2018,05,23,02,50,11.40
2018,05,23,02,51,11.40
2018,05,23,02,52,11.40
2018,05,23,02,53,11.40
2018,05,23,02,54,11.30
2018,05,23,02,55,11.30
2018,05,23,02,56,11.30
2018,05,23,02,57,11.30
2018,05,23,02,58,11.30
2018,05,23,02,59,11.30
2018,05,23,03,00,11.30
2018,05,23,03,01,11.30
2018,05,23,03,02,11.30
2018,05,23,03,03,11.20
2018,05,23,03,04,11.20
2018,05,23,03,05,11.20
2018,05,23,03,06,11.20
2018,05,23,03,07,11.20
2018,05,23,03,08,11.10
2018,05,23,03,09,11.10
2018,05,23,03,10,11.10
2018,05,23,03,11,11.10
2018,05,23,03,12,11.00
2018,05,23,03,13,11.00
2018,05,23,03,14,11.00
2018,05,23,03,15,10.90
2018,05,23,03,16,10.90
2018,05,23,03,17,10.90
2018,05,23,03,18,10.90
2018,05,23,03,19,10.80
2018,05,23,03,20,10.80
2018,05,23,03,21,10.80
2018,05,23,03,22,10.80
2018,05,23,03,23,10.80
2018,05,23,03,24,10.80
2018,05,23,03,25,10.80
2018,05,23,03,26,10.80
2018,05,23,03,27,10.80
2018,05,23,03,28,10.80
2018,05,23,03,29,10.80
2018,05,23,03,30,10.80
2018,05,23,03,31,10.80
2018,05,23,03,32,10.80
2018,05,23,03,33,10.80
2018,05,23,03,34,10.80
2018,05,23,03,35,10.80
2018,05,23,03,36,10.80
2018,05,23,03,37,10.90
2018,05,23,03,38,10.90
2018,05,23,03,39,10.80
2018,05,23,03,40,10.80
2018,05,23,03,41,10.80
2018,05,23,03,42,10.80
2018,05,23,03,43,10.80
2018,05,23,03,44,10.80
2018,05,23,03,45,10.80
2018,05,23,03,46,10.80
2018,05,23,03,47,10.80
2018,05,23,03,48,10.80
2018,05,23,03,49,10.80
2018,05,23,03,50,10.80
2018,05,23,03,51,10.80
2018,05,23,03,52,10.80
2018,05,23,03,53,10.80
2018,05,23,03,54,10.80
2018,05,23,03,55,10.80
2018,05,23,03,56,10.80
2018,05,23,03,57,10.80
2018,05,23,03,58,10.80
2018,05,23,03,59,10.80
2018,05,23,04,00,10.80
2018,05,23,04,01,10.80
2018,05,23,04,02,10.80
2018,05,23,04,03,10.80
2018,05,23,04,04,10.80
2018,05,23,04,05,10.70
2018,05,23,04,06,10.70
2018,05,23,04,07,10.70
2018,05,23,04,08,10.70
2018,05,23,04,09,10.60
2018,05,23,04,10,10.60
2018,05,23,04,11,10.60
2018,05,23,04,12,10.50
2018,05,23,04,13,10.50
2018,05,23,04,14,10.40
2018,05,23,04,15,10.40
2018,05,23,04,16,10.40
2018,05,23,04,17,10.40
2018,05,23,04,18,10.40
2018,05,23,04,19,10.40
2018,05,23,04,20,10.40
2018,05,23,04,21,10.40
2018,05,23,04,22,10.40
2018,05,23,04,23,10.40
2018,05,23,04,24,10.40
2018,05,23,04,25,10.30
2018,05,23,04,26,10.30
2018,05,23,04,27,10.30
2018,05,23,04,28,10.30
2018,05,23,04,29,10.30
2018,05,23,04,30,10.30
2018,05,23,04,31,10.30
2018,05,23,04,32,10.30
2018,05,23,04,33,10.30
2018,05,23,04,34,10.30
2018,05,23,04,35,10.30
2018,05,23,04,36,10.30
2018,05,23,04,37,10.30
2018,05,23,04,38,10.30
2018,05,23,04,39,10.30
2018,05,23,04,40,10.30
2018,05,23,04,41,10.30
2018,05,23,04,42,10.30
2018,05,23,04,43,10.30
2018,05,23,04,44,10.30
2018,05,23,04,45,10.30
2018,05,23,04,46,10.30
2018,05,23,04,47,10.30
2018,05,23,04,48,10.30
2018,05,23,04,49,10.20
2018,05,23,04,50,10.20
2018,05,23,04,51,10.20
2018,05,23,04,52,10.20
2018,05,23,04,53,10.20
2018,05,23,04,54,10.20
2018,05,23,04,55,10.20
2018,05,23,04,56,10.10
2018,05,23,04,57,10.10
2018,05,23,04,58,10.10
2018,05,23,04,59,10.10
2018,05,23,05,00,10.10
2018,05,23,05,01,10.10
2018,05,23,05,02,10.10
2018,05,23,05,03,10.10
2018,05,23,05,04,10.10
2018,05,23,05,05,10.10
2018,05,23,05,06,10.10
2018,05,23,05,07,10.00
2018,05,23,05,08,10.00
2018,05,23,05,09,10.00
2018,05,23,05,10,10.00
2018,05,23,05,11,9.90
2018,05,23,05,12,9.90
2018,05,23,05,13,9.90
2018,05,23,05,14,9.90
2018,05,23,05,15,9.90
2018,05,23,05,16,9.90
2018,05,23,05,17,9.90
2018,05,23,05,18,9.90
2018,05,23,05,19,9.80
2018,05,23,05,20,9.80
2018,05,23,05,21,9.80
2018,05,23,05,22,9.80
2018,05,23,05,23,9.80
2018,05,23,05,24,9.80
2018,05,23,05,25,9.80
2018,05,23,05,26,9.70
2018,05,23,05,27,9.70
2018,05,23,05,28,9.70
2018,05,23,05,29,9.70
2018,05,23,05,30,9.70
2018,05,23,05,31,9.80
2018,05,23,05,32,9.80
2018,05,23,05,33,9.80
2018,05,23,05,34,9.80
2018,05,23,05,35,9.80
2018,05,23,05,36,9.70
2018,05,23,05,37,9.70
2018,05,23,05,38,9.70
2018,05,23,05,39,9.70
2018,05,23,05,40,9.70
2018,05,23,05,41,9.70
2018,05,23,05,42,9.70
2018,05,23,05,43,9.70
2018,05,23,05,44,9.70
2018,05,23,05,45,9.70
2018,05,23,05,46,9.70
2018,05,23,05,47,9.70
2018,05,23,05,48,9.70
2018,05,23,05,49,9.70
2018,05,23,05,50,9.70
2018,05,23,05,51,9.70
2018,05,23,05,52,9.70
2018,05,23,05,53,9.70
2018,05,23,05,54,9.70
2018,05,23,05,55,9.70
2018,05,23,05,56,9.70
2018,05,23,05,57,9.70
2018,05,23,05,58,9.70
2018,05,23,05,59,9.70
2018,05,23,06,00,9.70
2018,05,23,06,01,9.70
2018,05,23,06,02,9.70
2018,05,23,06,03,9.70
2018,05,23,06,04,9.70
2018,05,23,06,05,9.70
2018,05,23,06,06,9.80
2018,05,23,06,07,9.80
2018,05,23,06,08,9.80
2018,05,23,06,09,9.80
2018,05,23,06,10,9.80
2018,05,23,06,11,9.80
2018,05,23,06,12,9.80
2018,05,23,06,13,9.90
2018,05,23,06,14,9.90
2018,05,23,06,15,9.90
2018,05,23,06,16,9.90
2018,05,23,06,17,9.90
2018,05,23,06,18,10.00
2018,05,23,06,19,10.00
2018,05,23,06,20,10.00
2018,05,23,06,21,10.00
2018,05,23,06,22,10.10
2018,05,23,06,23,10.10
2018,05,23,06,24,10.10
2018,05,23,06,25,10.10
2018,05,23,06,26,10.20
2018,05,23,06,27,10.20
2018,05,23,06,28,10.30
2018,05,23,06,29,10.30
2018,05,23,06,30,10.30
2018,05,23,06,31,10.40
2018,05,23,06,32,10.40
2018,05,23,06,33,10.40
2018,05,23,06,34,10.50
2018,05,23,06,35,10.50
2018,05,23,06,36,10.50
2018,05,23,06,37,10.60
2018,05,23,06,38,10.60
2018,05,23,06,39,10.70
2018,05,23,06,40,10.80
2018,05,23,06,41,10.90
2018,05,23,06,42,11.00
2018,05,23,06,43,11.00
2018,05,23,06,44,11.10
2018,05,23,06,45,11.20
2018,05,23,06,46,11.30
2018,05,23,06,47,11.30
2018,05,23,06,48,11.40
2018,05,23,06,49,11.40
2018,05,23,06,50,11.50
2018,05,23,06,51,11.60
2018,05,23,06,52,11.60
2018,05,23,06,53,11.60
2018,05,23,06,54,11.70
2018,05,23,06,55,11.70
2018,05,23,06,56,11.70
2018,05,23,06,57,11.70
2018,05,23,06,58,11.80
2018,05,23,06,59,11.80
2018,05,23,07,00,11.80
2018,05,23,07,01,11.80
2018,05,23,07,02,11.80
2018,05,23,07,03,11.90
2018,05,23,07,04,11.90
2018,05,23,07,05,11.90
2018,05,23,07,06,11.90
2018,05,23,07,07,12.00
2018,05,23,07,08,12.00
2018,05,23,07,09,12.10
2018,05,23,07,10,12.10
2018,05,23,07,11,12.20
2018,05,23,07,12,12.20
2018,05,23,07,13,12.30
2018,05,23,07,14,12.30
2018,05,23,07,15,12.40
2018,05,23,07,16,12.50
2018,05,23,07,17,12.60
2018,05,23,07,18,12.70
2018,05,23,07,19,12.80
2018,05,23,07,20,12.90
2018,05,23,07,21,13.00
2018,05,23,07,22,13.10
2018,05,23,07,23,13.20
2018,05,23,07,24,13.30
2018,05,23,07,25,13.40
2018,05,23,07,26,13.50
2018,05,23,07,27,13.60
2018,05,23,07,28,13.60
2018,05,23,07,29,13.70
2018,05,23,07,30,13.70
2018,05,23,07,31,13.80
2018,05,23,07,32,13.80
2018,05,23,07,33,13.90
2018,05,23,07,34,13.90
2018,05,23,07,35,14.00
2018,05,23,07,36,14.00
2018,05,23,07,37,14.10
2018,05,23,07,38,14.20
2018,05,23,07,39,14.20
2018,05,23,07,40,14.30
2018,05,23,07,41,14.40
2018,05,23,07,42,14.40
2018,05,23,07,43,14.50
2018,05,23,07,44,14.60
2018,05,23,07,45,14.60
2018,05,23,07,46,14.70
2018,05,23,07,47,14.80
2018,05,23,07,48,14.80
2018,05,23,07,49,14.90
2018,05,23,07,50,14.90
2018,05,23,07,51,15.00
2018,05,23,07,52,15.10
2018,05,23,07,53,15.10
2018,05,23,07,54,15.20
2018,05,23,07,55,15.20
2018,05,23,07,56,15.20
2018,05,23,07,57,15.30
2018,05,23,07,58,15.30
2018,05,23,07,59,15.40
2018,05,23,08,00,15.40
2018,05,23,08,01,15.50
2018,05,23,08,02,15.50
2018,05,23,08,03,15.60
2018,05,23,08,04,15.70
2018,05,23,08,05,15.70
2018,05,23,08,06,15.80
2018,05,23,08,07,15.80
2018,05,23,08,08,15.90
2018,05,23,08,09,15.90
2018,05,23,08,10,16.00
2018,05,23,08,11,16.00
2018,05,23,08,12,16.10
2018,05,23,08,13,16.10
2018,05,23,08,14,16.20
2018,05,23,08,15,16.20
2018,05,23,08,16,16.30
2018,05,23,08,17,16.30
2018,05,23,08,18,16.40
2018,05,23,08,19,16.50
2018,05,23,08,20,16.50
2018,05,23,08,21,16.60
2018,05,23,08,22,16.70
2018,05,23,08,23,16.80
2018,05,23,08,24,16.90
2018,05,23,08,25,16.90
2018,05,23,08,26,17.00
2018,05,23,08,27,17.10
2018,05,23,08,28,17.10
2018,05,23,08,29,17.10
2018,05,23,08,30,17.10
2018,05,23,08,31,17.10
2018,05,23,08,32,17.10
2018,05,23,08,33,17.20
2018,05,23,08,34,17.20
2018,05,23,08,35,17.30
2018,05,23,08,36,17.40
2018,05,23,08,37,17.40
2018,05,23,08,38,17.50
2018,05,23,08,39,17.60
2018,05,23,08,40,17.60
2018,05,23,08,41,17.60
2018,05,23,08,42,17.60
2018,05,23,08,43,17.60
2018,05,23,08,44,17.60
2018,05,23,08,45,17.50
2018,05,23,08,46,17.50
2018,05,23,08,47,17.60
2018,05,23,08,48,17.60
2018,05,23,08,49,17.60
2018,05,23,08,50,17.60
2018,05,23,08,51,17.60
2018,05,23,08,52,17.70
2018,05,23,08,53,17.70
2018,05,23,08,54,17.70
2018,05,23,08,55,17.70
2018,05,23,08,56,17.70
2018,05,23,08,57,17.80
2018,05,23,08,58,17.80
2018,05,23,08,59,17.80
2018,05,23,09,00,17.90
2018,05,23,09,01,17.90
2018,05,23,09,02,18.00
2018,05,23,09,03,18.00
2018,05,23,09,04,18.10
2018,05,23,09,05,18.20
2018,05,23,09,06,18.20
2018,05,23,09,07,18.20
2018,05,23,09,08,18.30
2018,05,23,09,09,18.30
2018,05,23,09,10,18.30
2018,05,23,09,11,18.40
2018,05,23,09,12,18.50
2018,05,23,09,13,18.70
2018,05,23,09,14,18.80
2018,05,23,09,15,18.90
2018,05,23,09,16,19.00
2018,05,23,09,17,19.10
2018,05,23,09,18,19.20
2018,05,23,09,19,19.40
2018,05,23,09,20,19.50
2018,05,23,09,21,19.60
2018,05,23,09,22,19.60
2018,05,23,09,23,19.70
2018,05,23,09,24,19.70
2018,05,23,09,25,19.80
2018,05,23,09,26,19.80
2018,05,23,09,27,19.80
2018,05,23,09,28,19.80
2018,05,23,09,29,19.80
2018,05,23,09,30,19.80
2018,05,23,09,31,19.80
2018,05,23,09,32,19.80
2018,05,23,09,33,19.80
2018,05,23,09,34,19.80
2018,05,23,09,35,19.80
2018,05,23,09,36,19.80
2018,05,23,09,37,19.80
2018,05,23,09,38,19.80
2018,05,23,09,39,19.80
2018,05,23,09,40,19.90
2018,05,23,09,41,20.00
2018,05,23,09,42,20.00
2018,05,23,09,43,20.10
2018,05,23,09,44,20.10
2018,05,23,09,45,20.20
2018,05,23,09,46,20.30
2018,05,23,09,47,20.30
2018,05,23,09,48,20.30
2018,05,23,09,49,20.30
2018,05,23,09,50,20.40
2018,05,23,09,51,20.40
2018,05,23,09,52,20.50
2018,05,23,09,53,20.60
2018,05,23,09,54,20.70
2018,05,23,09,55,20.90
2018,05,23,09,56,21.00
2018,05,23,09,57,21.00
2018,05,23,09,58,21.10
2018,05,23,09,59,21.10
2018,05,23,10,00,21.00
2018,05,23,10,01,20.90
2018,05,23,10,02,20.70
2018,05,23,10,03,20.70
2018,05,23,10,04,20.60
2018,05,23,10,05,20.60
2018,05,23,10,06,20.60
2018,05,23,10,07,20.60
2018,05,23,10,08,20.50
2018,05,23,10,09,20.40
2018,05,23,10,10,20.50
2018,05,23,10,11,20.50
2018,05,23,10,12,20.40
2018,05,23,10,13,20.40
2018,05,23,10,14,20.40
2018,05,23,10,15,20.40
2018,05,23,10,16,20.40
2018,05,23,10,17,20.40
2018,05,23,10,18,20.30
2018,05,23,10,19,20.30
2018,05,23,10,20,20.30
2018,05,23,10,21,20.30
2018,05,23,10,22,20.30
2018,05,23,10,23,20.30
2018,05,23,10,24,20.20
2018,05,23,10,25,20.20
2018,05,23,10,26,20.10
2018,05,23,10,27,20.00
2018,05,23,10,28,19.90
2018,05,23,10,29,19.90
2018,05,23,10,30,19.80
2018,05,23,10,31,19.80
2018,05,23,10,32,19.80
2018,05,23,10,33,19.80
2018,05,23,10,34,19.80
2018,05,23,10,35,19.80
2018,05,23,10,36,19.80
2018,05,23,10,37,19.80
2018,05,23,10,38,19.80
2018,05,23,10,39,19.80
2018,05,23,10,40,19.80
2018,05,23,10,41,19.80
2018,05,23,10,42,19.90
2018,05,23,10,43,19.90
2018,05,23,10,44,20.00
2018,05,23,10,45,20.00
2018,05,23,10,46,20.10
2018,05,23,10,47,20.10
2018,05,23,10,48,20.10
2018,05,23,10,49,20.10
2018,05,23,10,50,20.20
2018,05,23,10,51,20.20
2018,05,23,10,52,20.20
2018,05,23,10,53,20.20
2018,05,23,10,54,20.20
2018,05,23,10,55,20.20
2018,05,23,10,56,20.30
2018,05,23,10,57,20.30
2018,05,23,10,58,20.30
2018,05,23,10,59,20.40
2018,05,23,11,00,20.40
2018,05,23,11,01,20.40
2018,05,23,11,02,20.50
2018,05,23,11,03,20.50
2018,05,23,11,04,20.50
2018,05,23,11,05,20.50
2018,05,23,11,06,20.60
2018,05,23,11,07,20.60
2018,05,23,11,08,20.70
2018,05,23,11,09,20.70
2018,05,23,11,10,20.70
2018,05,23,11,11,20.70
2018,05,23,11,12,20.70
2018,05,23,11,13,20.60
2018,05,23,11,14,20.60
2018,05,23,11,15,20.50
2018,05,23,11,16,20.50
2018,05,23,11,17,20.50
2018,05,23,11,18,20.50
2018,05,23,11,19,20.60
2018,05,23,11,20,20.50
2018,05,23,11,21,20.50
2018,05,23,11,22,20.50
2018,05,23,11,23,20.50
2018,05,23,11,24,20.50
2018,05,23,11,25,20.50
2018,05,23,11,26,20.50
2018,05,23,11,27,20.60
2018,05,23,11,28,20.70
2018,05,23,11,29,20.80
2018,05,23,11,30,20.90
2018,05,23,11,31,20.90
2018,05,23,11,32,20.90
2018,05,23,11,33,21.00
2018,05,23,11,34,21.00
2018,05,23,11,35,20.90
2018,05,23,11,36,20.80
2018,05,23,11,37,20.80
2018,05,23,11,38,20.90
2018,05,23,11,39,21.00
2018,05,23,11,40,21.00
2018,05,23,11,41,20.90
2018,05,23,11,42,20.90
2018,05,23,11,43,20.80
2018,05,23,11,44,20.80
2018,05,23,11,45,20.80
2018,05,23,11,46,20.80
2018,05,23,11,47,20.80
2018,05,23,11,48,20.80
2018,05,23,11,49,20.80
2018,05,23,11,50,20.80
2018,05,23,11,51,20.70
2018,05,23,11,52,20.70
2018,05,23,11,53,20.70
2018,05,23,11,54,20.70
2018,05,23,11,55,20.70
2018,05,23,11,56,20.70
2018,05,23,11,57,20.80
2018,05,23,11,58,20.80
2018,05,23,11,59,20.80
2018,05,23,12,00,20.80
2018,05,23,12,01,20.80
2018,05,23,12,02,20.80
2018,05,23,12,03,20.80
2018,05,23,12,04,20.80
2018,05,23,12,05,20.80
2018,05,23,12,06,20.80
2018,05,23,12,07,20.70
2018,05,23,12,08,20.70
2018,05,23,12,09,20.70
2018,05,23,12,10,20.70
2018,05,23,12,11,20.80
2018,05,23,12,12,20.70
2018,05,23,12,13,20.70
2018,05,23,12,14,20.80
2018,05,23,12,15,20.90
2018,05,23,12,16,21.00
2018,05,23,12,17,21.00
2018,05,23,12,18,21.00
2018,05,23,12,19,21.00
2018,05,23,12,20,21.00
2018,05,23,12,21,21.00
2018,05,23,12,22,21.10
2018,05,23,12,23,21.10
2018,05,23,12,24,21.10
2018,05,23,12,25,21.10
2018,05,23,12,26,21.20
2018,05,23,12,27,21.20
2018,05,23,12,28,21.20
2018,05,23,12,29,21.20
2018,05,23,12,30,21.20
2018,05,23,12,31,21.20
2018,05,23,12,32,21.30
2018,05,23,12,33,21.30
2018,05,23,12,34,21.30
2018,05,23,12,35,21.30
2018,05,23,12,36,21.40
2018,05,23,12,37,21.40
2018,05,23,12,38,21.40
2018,05,23,12,39,21.40
2018,05,23,12,40,21.50
2018,05,23,12,41,21.60
2018,05,23,12,42,21.60
2018,05,23,12,43,21.50
2018,05,23,12,44,21.40
2018,05,23,12,45,21.40
2018,05,23,12,46,21.40
2018,05,23,12,47,21.30
2018,05,23,12,48,21.40
2018,05,23,12,49,21.40
2018,05,23,12,50,21.50
2018,05,23,12,51,21.50
2018,05,23,12,52,21.50
2018,05,23,12,53,21.50
2018,05,23,12,54,21.60
2018,05,23,12,55,21.60
2018,05,23,12,56,21.60
2018,05,23,12,57,21.70
2018,05,23,12,58,21.70
2018,05,23,12,59,21.70
2018,05,23,13,00,21.60
2018,05,23,13,01,21.60
2018,05,23,13,02,21.60
2018,05,23,13,03,21.70
2018,05,23,13,04,21.80
2018,05,23,13,05,21.90
2018,05,23,13,06,22.00
2018,05,23,13,07,22.10
2018,05,23,13,08,22.10
2018,05,23,13,09,22.20
2018,05,23,13,10,22.30
2018,05,23,13,11,22.40
2018,05,23,13,12,22.40
2018,05,23,13,13,22.40
2018,05,23,13,14,22.30
2018,05,23,13,15,22.20
2018,05,23,13,16,22.10
2018,05,23,13,17,22.00
2018,05,23,13,18,22.00
2018,05,23,13,19,22.00
2018,05,23,13,20,22.00
2018,05,23,13,21,22.10
2018,05,23,13,22,22.20
2018,05,23,13,23,22.20
2018,05,23,13,24,22.20
2018,05,23,13,25,22.20
2018,05,23,13,26,22.10
2018,05,23,13,27,22.10
2018,05,23,13,28,22.10
2018,05,23,13,29,22.00
2018,05,23,13,30,22.00
2018,05,23,13,31,22.00
2018,05,23,13,32,22.10
2018,05,23,13,33,22.20
2018,05,23,13,34,22.20
2018,05,23,13,35,22.30
2018,05,23,13,36,22.30
2018,05,23,13,37,22.40
2018,05,23,13,38,22.40
2018,05,23,13,39,22.40
2018,05,23,13,40,22.40
2018,05,23,13,41,22.40
2018,05,23,13,42,22.40
2018,05,23,13,43,22.50
2018,05,23,13,44,22.60
2018,05,23,13,45,22.70
2018,05,23,13,46,22.90
2018,05,23,13,47,22.90
2018,05,23,13,48,22.90
2018,05,23,13,49,22.90
2018,05,23,13,50,22.90
2018,05,23,13,51,22.90
2018,05,23,13,52,23.00
2018,05,23,13,53,22.90
2018,05,23,13,54,22.90
2018,05,23,13,55,22.90
2018,05,23,13,56,22.90
2018,05,23,13,57,22.80
2018,05,23,13,58,22.80
2018,05,23,13,59,22.70
2018,05,23,14,00,22.70
2018,05,23,14,01,22.60
2018,05,23,14,02,22.60
2018,05,23,14,03,22.60
2018,05,23,14,04,22.60
2018,05,23,14,05,22.70
2018,05,23,14,06,22.70
2018,05,23,14,07,22.60
2018,05,23,14,08,22.70
2018,05,23,14,09,22.70
2018,05,23,14,10,22.60
2018,05,23,14,11,22.60
2018,05,23,14,12,22.60
2018,05,23,14,13,22.60
2018,05,23,14,14,22.70
2018,05,23,14,15,22.80
2018,05,23,14,16,22.90
2018,05,23,14,17,22.90
2018,05,23,14,18,22.90
2018,05,23,14,19,22.90
2018,05,23,14,20,22.90
2018,05,23,14,21,22.90
2018,05,23,14,22,22.90
2018,05,23,14,23,23.00
2018,05,23,14,24,23.10
2018,05,23,14,25,23.20
2018,05,23,14,26,23.20
2018,05,23,14,27,23.10
2018,05,23,14,28,23.00
2018,05,23,14,29,23.00
2018,05,23,14,30,22.90
2018,05,23,14,31,22.80
2018,05,23,14,32,22.80
2018,05,23,14,33,22.70
2018,05,23,14,34,22.70
2018,05,23,14,35,22.70
2018,05,23,14,36,22.70
2018,05,23,14,37,22.90
2018,05,23,14,38,23.00
2018,05,23,14,39,23.10
2018,05,23,14,40,23.10
2018,05,23,14,41,23.10
2018,05,23,14,42,23.10
2018,05,23,14,43,23.10
2018,05,23,14,44,23.10
2018,05,23,14,45,23.10
2018,05,23,14,46,23.10
2018,05,23,14,47,23.10
2018,05,23,14,48,23.10
2018,05,23,14,49,23.10
2018,05,23,14,50,23.00
2018,05,23,14,51,23.00
2018,05,23,14,52,23.00
2018,05,23,14,53,23.00
2018,05,23,14,54,23.10
2018,05,23,14,55,23.10
2018,05,23,14,56,23.10
2018,05,23,14,57,23.20
2018,05,23,14,58,23.30
2018,05,23,14,59,23.30
2018,05,23,15,00,23.30
2018,05,23,15,01,23.30
2018,05,23,15,02,23.30
2018,05,23,15,03,23.30
2018,05,23,15,04,23.20
2018,05,23,15,05,23.20
2018,05,23,15,06,23.20
2018,05,23,15,07,23.10
2018,05,23,15,08,23.10
2018,05,23,15,09,23.10
2018,05,23,15,10,23.10
2018,05,23,15,11,23.10
2018,05,23,15,12,23.10
2018,05,23,15,13,23.10
2018,05,23,15,14,23.10
2018,05,23,15,15,23.20
2018,05,23,15,16,23.20
2018,05,23,15,17,23.30
2018,05,23,15,18,23.40
2018,05,23,15,19,23.50
2018,05,23,15,20,23.50
2018,05,23,15,21,23.60
2018,05,23,15,22,23.60
2018,05,23,15,23,23.70
2018,05,23,15,24,23.70
2018,05,23,15,25,23.70
2018,05,23,15,26,23.70
2018,05,23,15,27,23.70
2018,05,23,15,28,23.80
2018,05,23,15,29,23.80
2018,05,23,15,30,23.70
2018,05,23,15,31,23.70
2018,05,23,15,32,23.60
2018,05,23,15,33,23.60
2018,05,23,15,34,23.50
2018,05,23,15,35,23.60
2018,05,23,15,36,23.60
2018,05,23,15,37,23.70
2018,05,23,15,38,23.80
2018,05,23,15,39,23.90
2018,05,23,15,40,23.90
2018,05,23,15,41,24.10
2018,05,23,15,42,24.20
2018,05,23,15,43,24.30
2018,05,23,15,44,24.30
2018,05,23,15,45,24.40
2018,05,23,15,46,24.40
2018,05,23,15,47,24.50
2018,05,23,15,48,24.60
2018,05,23,15,49,24.60
2018,05,23,15,50,24.70
2018,05,23,15,51,24.70
2018,05,23,15,52,24.70
2018,05,23,15,53,24.80
2018,05,23,15,54,24.80
2018,05,23,15,55,24.80
2018,05,23,15,56,24.80
2018,05,23,15,57,24.90
2018,05,23,15,58,25.00
2018,05,23,15,59,25.10
2018,05,23,16,00,25.10
2018,05,23,16,01,25.10
2018,05,23,16,02,25.10
2018,05,23,16,03,25.10
2018,05,23,16,04,25.00
2018,05,23,16,05,24.90
2018,05,23,16,06,24.90
2018,05,23,16,07,24.80
2018,05,23,16,08,24.80
2018,05,23,16,09,24.70
2018,05,23,16,10,24.50
2018,05,23,16,11,24.40
2018,05,23,16,12,24.30
2018,05,23,16,13,24.30
2018,05,23,16,14,24.30
2018,05,23,16,15,24.30
2018,05,23,16,16,24.30
2018,05,23,16,17,24.30
2018,05,23,16,18,24.20
2018,05,23,16,19,24.20
2018,05,23,16,20,24.30
2018,05,23,16,21,24.20
2018,05,23,16,22,24.30
2018,05,23,16,23,24.30
2018,05,23,16,24,24.30
2018,05,23,16,25,24.40
2018,05,23,16,26,24.40
2018,05,23,16,27,24.50
2018,05,23,16,28,24.50
2018,05,23,16,29,24.50
2018,05,23,16,30,24.40
2018,05,23,16,31,24.40
2018,05,23,16,32,24.30
2018,05,23,16,33,24.40
2018,05,23,16,34,24.40
2018,05,23,16,35,24.40
2018,05,23,16,36,24.50
2018,05,23,16,37,24.50
2018,05,23,16,38,24.50
2018,05,23,16,39,24.60
2018,05,23,16,40,24.70
2018,05,23,16,41,24.70
2018,05,23,16,42,24.80
2018,05,23,16,43,24.80
2018,05,23,16,44,24.80
2018,05,23,16,45,24.80
2018,05,23,16,46,24.80
2018,05,23,16,47,24.80
2018,05,23,16,48,24.80
2018,05,23,16,49,24.80
2018,05,23,16,50,24.80
2018,05,23,16,51,24.80
2018,05,23,16,52,24.80
2018,05,23,16,53,24.80
2018,05,23,16,54,24.80
2018,05,23,16,55,24.90
2018,05,23,16,56,24.90
2018,05,23,16,57,24.90
2018,05,23,16,58,24.90
2018,05,23,16,59,25.00
2018,05,23,17,00,25.00
2018,05,23,17,01,25.00
2018,05,23,17,02,25.10
2018,05,23,17,03,25.10
2018,05,23,17,04,25.10
2018,05,23,17,05,25.10
2018,05,23,17,06,25.10
2018,05,23,17,07,25.00
2018,05,23,17,08,24.90
2018,05,23,17,09,24.90
2018,05,23,17,10,24.90
2018,05,23,17,11,24.90
2018,05,23,17,12,24.90
2018,05,23,17,13,24.90
2018,05,23,17,14,24.80
2018,05,23,17,15,24.80
2018,05,23,17,16,24.80
2018,05,23,17,17,24.80
2018,05,23,17,18,24.70
2018,05,23,17,19,24.70
2018,05,23,17,20,24.60
2018,05,23,17,21,24.60
2018,05,23,17,22,24.50